[[{"header":{"parameterUnit":"m.s-1","parameterCategory":1,"la1":30.2991,"la2":30.254,"lo1":-89.0895,"lo2":-89.0444,"dy":0.0017,"dx":0.0017,"nx":28,"ny":28,"refTime":"2024-07-13T03:00:00:Z","depth":0,"parameterNumber":2,"parameterNumberName":"U-component_of_WINDS"},"data":[0,0,0,0,0,0,0,0,0,0,0,0,0,0,0,0,0,0,0,0,0,0,0,0,0,0,0,0,0,0,0,0,0,0,0,0,0,0,0,0,0,0,0,0,0,0,0,0,0,0,0,0,0,0,0,0,0,0,4.295,4.2951,0,4.3051,4.3052,4.3053,4.2959,4.2955,4.2952,4.2948,4.305,4.3056,4.3063,0,0,0,0,0,0,0,0,0,0,0,0,0,4.2671,4.2677,4.295,4.2951,4.2952,4.3051,4.3052,4.3054,4.296,4.2955,4.2951,4.2946,4.3048,4.3056,4.3063,0,0,0,0,0,0,0,0,0,0,0,0,0,4.2785,4.2679,4.2949,4.2917,4.2915,4.3051,4.3052,4.3054,4.2961,4.2955,4.2949,4.2944,4.3046,4.3055,4.3064,4.3236,0,0,4.3093,4.3097,0,0,0,0,0,0,0,0,4.2778,4.2795,4.2921,4.292,4.2918,4.2987,4.2992,4.3115,4.2962,4.2944,4.2948,4.2941,4.3034,4.3044,4.3075,4.3241,4.3245,4.3094,4.3099,4.3103,4.3106,0,0,0,0,0,0,0,4.2771,4.279,4.299,4.2923,4.2921,4.2897,4.2907,4.3015,4.3019,4.2945,4.2938,4.2952,4.3032,4.3066,4.3077,4.3246,4.3093,4.3102,4.3108,4.3111,4.3554,4.3559,0,0,0,0,0,0,4.2766,4.2784,4.2986,4.2993,4.2833,4.2906,4.2917,4.297,4.3018,4.302,4.2956,4.2947,4.3053,4.3066,4.308,4.3281,4.3103,4.3112,4.3118,4.3548,4.3555,4.3562,0,0,0,0,0,0,4.2761,4.2785,4.2982,4.2887,4.291,4.2917,4.2978,4.2975,4.301,4.3027,4.3027,4.2991,4.3049,4.3067,4.3197,4.3283,4.3116,4.3125,4.354,4.355,4.3558,4.3686,0,0,0,0,0,0,4.2753,4.2784,4.285,4.2889,4.2915,4.3099,4.2983,4.2981,4.3026,4.3015,4.3059,4.3061,4.3046,4.3184,4.3206,4.3293,4.3132,4.3533,4.3545,4.3555,4.3674,4.3698,4.3719,0,0,0,0,0,4.2744,4.2882,4.2854,4.2879,4.2998,4.3104,4.3119,4.31,4.3034,4.3099,4.311,4.3059,4.3271,4.3198,4.3223,4.3313,4.3527,4.3541,4.3555,4.3664,4.3693,4.3718,0,0,0,0,0,0,4.2853,4.2887,4.2856,4.3011,4.3056,4.3088,4.317,4.3132,4.3196,4.3182,4.3155,4.3166,4.3303,4.3321,4.3239,4.348,4.3388,4.3407,4.3462,4.3491,4.3513,4.3504,4.314,0,0,0,0,0,4.2896,4.298,4.3004,4.3139,4.3163,4.3163,4.3209,4.319,4.3234,4.3252,4.3272,4.3317,4.3392,4.3443,4.3514,4.3677,4.3683,4.3752,4.3774,4.3793,4.3809,4.3892,4.3922,4.3607,4.3607,4.3607,0,0,4.2984,4.3013,4.3068,4.3162,4.3194,4.328,4.318,4.3276,4.3338,4.3267,4.339,4.3406,4.3454,4.36,4.3665,4.362,4.3897,4.381,4.3825,4.3831,4.3909,4.3939,4.3966,4.3616,4.3615,4.3613,0,0,4.3188,4.322,4.3334,4.3368,4.3417,4.3416,4.3444,4.3482,4.349,4.3614,4.356,4.3635,4.3767,4.3802,4.3837,4.4053,4.4008,4.4077,4.4194,4.4276,4.43,4.4322,4.4395,4.4423,4.4094,4.4094,4.4094,0,4.3291,4.3419,4.3397,4.3496,4.3538,4.3478,4.3591,4.3625,4.3696,4.3725,4.3674,4.3836,4.3865,4.4016,4.4069,4.4101,4.4129,4.407,4.4299,4.4321,4.434,4.441,4.4438,4.4102,4.4101,4.41,4.4099,0,4.3541,4.3631,4.3717,4.3786,4.3838,4.3944,4.3937,4.3992,4.3968,4.3972,4.4097,4.4129,4.4203,4.4239,4.4218,4.4387,4.4357,4.4303,4.4209,4.4379,4.4443,4.447,4.4113,4.411,4.4108,4.4106,0,0,4.3816,4.3871,4.3902,4.3931,4.3981,4.4049,4.4152,4.4225,4.4271,4.4322,4.4405,4.4518,4.4468,4.4508,4.449,4.4563,4.4727,4.4499,4.4499,4.4537,4.4911,4.4949,4.498,4.4698,4.4703,4.4707,4.4906,0,4.4018,4.4196,4.4179,4.4348,4.4428,4.4372,4.4461,4.45,4.4507,4.4575,4.4582,4.4661,4.459,4.4613,4.4683,4.4692,4.4801,4.4678,4.4772,4.4776,4.4759,4.5014,4.5055,4.5241,4.4931,4.4936,4.4939,0,4.4278,4.4337,4.4514,4.4549,4.4582,4.4662,4.4726,4.4794,4.4836,4.4836,4.488,4.4849,4.495,4.4857,4.4993,4.491,4.4948,4.4959,4.4965,4.497,4.4865,4.5023,4.53,4.5326,4.4979,4.4976,4.4973,0,4.4456,4.458,4.47,4.4728,4.4773,4.483,4.4851,4.4889,4.4933,4.4989,4.5017,4.5085,4.5121,4.5173,4.516,4.5094,4.53,4.5206,4.5299,4.5299,4.5342,4.5339,4.5625,4.5373,4.5373,4.5372,4.5372,0,4.4681,4.4791,4.478,4.4854,4.4974,4.4953,4.5072,4.5086,4.512,4.5194,4.515,4.5221,4.5201,4.527,4.5262,4.5374,4.5392,4.5392,4.5388,4.5394,4.5394,4.5416,4.5401,4.538,4.5378,4.5377,4.5375,0,4.4899,4.4897,4.5024,4.5056,4.5067,4.5153,4.518,4.5249,4.5252,4.5346,4.5367,4.5371,4.545,4.5443,4.5533,4.5526,4.5664,4.5647,4.565,4.5644,4.5737,4.5727,4.6044,4.6083,4.581,4.5812,4.5815,0,4.5041,4.5124,4.5165,4.5211,4.5236,4.5313,4.5357,4.534,4.5387,4.5441,4.5503,4.5578,4.5637,4.5765,4.5775,4.5842,4.5823,4.593,4.5833,4.5836,4.582,4.5814,4.582,4.5948,4.5951,4.5954,4.5956,0,4.5293,4.5287,4.5354,4.542,4.5474,4.5525,4.5572,4.5612,4.5599,4.5655,4.5735,4.5781,4.5871,4.5945,4.6008,4.6028,4.5989,4.5987,4.6011,4.6017,4.6013,4.6012,4.5698,4.5979,4.5977,4.5975,4.5974,4.5973,4.5474,4.5544,4.5583,4.5657,4.569,4.5734,4.5799,4.581,4.5877,4.5949,4.5935,4.6024,4.6062,4.6143,4.617,4.6238,4.6199,4.6236,4.6244,4.6253,4.6261,4.6006,4.625,4.625,4.6249,4.6248,4.6248,0,4.572,4.5742,4.5812,4.5877,4.5935,4.5895,4.5944,4.5995,4.6074,4.6114,4.6172,4.6263,4.6334,4.635,4.6417,4.6468,4.6452,4.6486,4.648,4.6485,4.6294,4.6264,4.6498,4.6498,4.6498,4.6498,4.6498,4.6498,4.5855,4.5969,4.5968,4.6097,4.6118,4.6205,4.6236,4.6275,4.6306,4.641,4.6468,4.6479,4.6508,4.6577,4.6639,4.6642,4.6667,4.6708,4.6703,4.6524,4.6499,4.6475,4.6446,4.6715,4.6715,4.6887,4.6889,4.689]},{"header":{"parameterUnit":"m.s-1","parameterCategory":1,"la1":30.2991,"la2":30.254,"lo1":-89.0895,"lo2":-89.0444,"dy":0.0017,"dx":0.0017,"nx":28,"ny":28,"refTime":"2024-07-13T03:00:00:Z","depth":0,"parameterNumber":3,"parameterNumberName":"V-component_of_WINDS"},"data":[0,0,0,0,0,0,0,0,0,0,0,0,0,0,0,0,0,0,0,0,0,0,0,0,0,0,0,0,0,0,0,0,0,0,0,0,0,0,0,0,0,0,0,0,0,0,0,0,0,0,0,0,0,0,0,0,0,0,1.9485,1.9486,0,1.9491,1.9491,1.9491,1.9457,1.9456,1.9455,1.9454,1.946,1.9461,1.9462,0,0,0,0,0,0,0,0,0,0,0,0,0,1.9443,1.9444,1.9485,1.9486,1.9486,1.9491,1.9491,1.9491,1.9457,1.9456,1.9454,1.9453,1.9459,1.9461,1.9462,0,0,0,0,0,0,0,0,0,0,0,0,0,1.9457,1.9445,1.9485,1.9469,1.9468,1.9491,1.9491,1.9491,1.9457,1.9456,1.9454,1.9453,1.9459,1.946,1.9462,1.9502,0,0,1.9467,1.9468,0,0,0,0,0,0,0,0,1.9456,1.9458,1.9471,1.947,1.9469,1.9472,1.9478,1.9495,1.9457,1.9461,1.9454,1.9452,1.9465,1.9466,1.947,1.9502,1.9502,1.9467,1.9468,1.9469,1.9469,0,0,0,0,0,0,0,1.9455,1.9458,1.9488,1.9472,1.947,1.9461,1.9461,1.9481,1.9471,1.9461,1.9458,1.9459,1.9464,1.9469,1.947,1.9502,1.9467,1.9469,1.947,1.947,1.9564,1.9565,0,0,0,0,0,0,1.9456,1.9457,1.9488,1.9488,1.9458,1.9463,1.9463,1.9472,1.9471,1.9469,1.946,1.9458,1.9467,1.9468,1.947,1.9514,1.9469,1.947,1.9471,1.9562,1.9564,1.9566,0,0,0,0,0,0,1.9456,1.9459,1.9487,1.9472,1.9475,1.9465,1.9476,1.9473,1.9478,1.9471,1.9469,1.9467,1.9466,1.9468,1.9493,1.9514,1.9471,1.9473,1.9561,1.9563,1.9565,1.9605,0,0,0,0,0,0,1.9455,1.9459,1.9475,1.9472,1.9476,1.9511,1.9477,1.9474,1.9481,1.9477,1.9477,1.9475,1.9465,1.9491,1.9495,1.9516,1.9474,1.9559,1.9562,1.9564,1.9602,1.9608,1.9614,0,0,0,0,0,1.9453,1.9487,1.9476,1.948,1.9495,1.9512,1.9514,1.9501,1.9483,1.9498,1.9493,1.9475,1.9512,1.9494,1.9498,1.952,1.9557,1.9561,1.9564,1.9599,1.9607,1.9614,0,0,0,0,0,0,1.9492,1.9486,1.9474,1.9508,1.9511,1.9507,1.9525,1.9511,1.9519,1.9515,1.9499,1.9499,1.9527,1.9526,1.9507,1.9556,1.9531,1.9535,1.9556,1.9564,1.957,1.9569,1.9475,0,0,0,0,0,1.9505,1.952,1.9513,1.9544,1.9546,1.9535,1.9543,1.9532,1.9535,1.9536,1.9533,1.9536,1.9547,1.9556,1.9566,1.9601,1.96,1.9618,1.9624,1.9629,1.9633,1.9649,1.9656,1.9577,1.9577,1.9577,0,0,1.9531,1.9529,1.954,1.9551,1.9553,1.9568,1.9537,1.9555,1.9565,1.9539,1.9562,1.956,1.9562,1.9592,1.9605,1.9592,1.9654,1.9633,1.9637,1.9638,1.9653,1.9661,1.9667,1.9579,1.9579,1.9579,0,0,1.9586,1.9587,1.9611,1.9612,1.9614,1.9606,1.9612,1.961,1.9607,1.963,1.9609,1.9622,1.9643,1.9645,1.9648,1.9701,1.9685,1.9705,1.9737,1.9753,1.9759,1.9764,1.9781,1.9788,1.9709,1.9709,1.9709,0,1.9618,1.964,1.9625,1.9644,1.9649,1.9624,1.9648,1.965,1.9655,1.9659,1.9644,1.9668,1.9668,1.9697,1.9709,1.9714,1.9719,1.9705,1.9759,1.9764,1.9769,1.9785,1.9792,1.9711,1.9711,1.9711,1.9711,0,1.9679,1.9694,1.9714,1.9718,1.9725,1.9746,1.9733,1.9742,1.9731,1.9724,1.9747,1.9746,1.9754,1.9761,1.975,1.9787,1.9779,1.9762,1.9736,1.9779,1.9794,1.98,1.9715,1.9714,1.9713,1.9713,0,0,1.976,1.9754,1.9761,1.9762,1.9761,1.9772,1.9791,1.9799,1.9806,1.981,1.9825,1.9842,1.9826,1.983,1.9819,1.9833,1.9873,1.9814,1.9814,1.9824,1.9911,1.9922,1.993,1.9862,1.9863,1.9864,1.991,0,1.9812,1.9844,1.983,1.9863,1.9876,1.9852,1.9868,1.9869,1.9863,1.9873,1.9866,1.9878,1.9857,1.9859,1.9872,1.9865,1.989,1.9862,1.9874,1.9875,1.9873,1.9938,1.9951,1.9994,1.9916,1.9917,1.9918,0,1.9877,1.9882,1.9917,1.9911,1.9916,1.9931,1.9936,1.9946,1.9945,1.994,1.9943,1.9928,1.9946,1.992,1.9942,1.9924,1.9928,1.9925,1.9927,1.9926,1.9898,1.9938,2.0008,2.0014,1.9927,1.9926,1.9925,0,1.993,1.9946,1.9968,1.9969,1.9964,1.9975,1.9973,1.9971,1.9976,1.998,1.9983,1.9989,1.9993,1.9997,1.9984,1.9967,2.0008,1.9982,2.0002,2.0003,2.0012,2.0011,2.0082,2.0017,2.0017,2.0016,2.0016,0,1.9989,2.0011,1.9991,2.0005,2.0027,2.001,2.0033,2.0029,2.0027,2.0038,2.0018,2.0029,2.0012,2.0021,2.0011,2.0029,2.0032,2.0027,2.0023,2.0028,2.0028,2.0029,2.0026,2.0018,2.0018,2.0017,2.0017,0,2.0052,2.004,2.0062,2.0054,2.0053,2.007,2.0063,2.0074,2.0066,2.0081,2.0083,2.0071,2.008,2.0067,2.0076,2.0069,2.0094,2.0087,2.0094,2.0091,2.0112,2.011,2.0186,2.0194,2.0125,2.0125,2.0126,0,2.009,2.0106,2.0099,2.0105,2.0104,2.0114,2.0118,2.0102,2.0107,2.0106,2.0117,2.0125,2.013,2.0145,2.0137,2.0142,2.0134,2.016,2.0135,2.0138,2.0133,2.0131,2.0132,2.0165,2.0166,2.0167,2.0168,0,2.0158,2.0151,2.0158,2.0162,2.0167,2.017,2.0171,2.0177,2.016,2.0166,2.0175,2.0179,2.0186,2.0193,2.0196,2.0194,2.0177,2.0176,2.018,2.0184,2.0187,2.0184,2.0106,2.0174,2.0173,2.0173,2.0172,2.0172,2.0208,2.022,2.0216,2.0224,2.0223,2.0224,2.0234,2.0226,2.0233,2.0237,2.0227,2.0238,2.0235,2.0237,2.0236,2.0244,2.0232,2.024,2.0241,2.0243,2.0245,2.0187,2.0244,2.0244,2.0244,2.0244,2.0244,0,2.0273,2.0269,2.0276,2.0278,2.0284,2.0267,2.0267,2.0273,2.0282,2.0281,2.0286,2.0294,2.03,2.0292,2.0296,2.0304,2.0296,2.0305,2.0304,2.0303,2.0256,2.0251,2.0311,2.0311,2.0311,2.0311,2.0311,2.0311,2.0308,2.0326,2.0318,2.0335,2.033,2.034,2.0341,2.0342,2.034,2.035,2.0355,2.0349,2.0344,2.0348,2.0352,2.0349,2.0351,2.0362,2.0357,2.0313,2.0307,2.03,2.0295,2.0363,2.0363,2.0402,2.0403,2.0403]}]]